Weather History for Chattanooga, TN

Change the Weather History Date:

Wednesday, April 24, 2013

  Actual Average Record
Temperature  
Mean Temperature 61 °F 63 °F  
Max Temperature 71 °F 75 °F 92 °F (1921)
Min Temperature 50 °F 51 °F 34 °F (1982)
Degree Days  
Heating Degree Days 4 4  
Month to date heating degree days 135 155  
Since 1 July heating degree days 3002 3181  
Cooling Degree Days 0 2  
Month to date cooling degree days 34 28  
Year to date cooling degree days 39 35  
Growing Degree Days 10 (Base 50)    
Moisture  
Dew Point 52 °F    
Average Humidity 74    
Maximum Humidity 87    
Minimum Humidity 60    
Precipitation  
Precipitation 0.06 in 0.13 in 1.84 in (1937)
Month to date precipitation 5.73 3.20  
Year to date precipitation 24.12 17.93  
Snow  
Snow 0.00 in 0.00 in - ()
Month to date snowfall 0.0 0.1  
Since 1 July snowfall 0.3 3.9  
Snow Depth 0.00 in    
Sea Level Pressure  
Sea Level Pressure 30.08 in    
Wind  
Wind Speed 9 mph (SW)    
Max Wind Speed 21 mph    
Max Gust Speed 29 mph    
Visibility 10 miles    
Events Rain    
T = Trace of Precipitation, MM = Missing Value Source: NWS Daily Summary

Daily Weather History Graph

Daily Weather History Graph

Search for Another Location

Airport:

Trip Planner

Search our weather history database for the weather conditions in past years. The results will help you decide how hot, cold, wet, or windy it might be!

Date:

Astronomy

Apr. 24, 2013 Rise Set
Actual Time 6:57 AM EDT 8:20 PM EDT
Civil Twilight 6:30 AM EDT 8:47 PM EDT
Nautical Twilight 5:59 AM EDT 9:19 PM EDT
Astronomical Twilight 5:25 AM EDT 9:52 PM EDT
Moon 7:24 PM EDT (4/24) 5:57 AM EDT (4/24)
Length of Visible Light 14h 16m
Length of Day
13h 23m
Waxing Gibbous, 98% of the Moon is Illuminated
Apr 24
Waxing Gibbous
Apr 25
Full
May 2
Last Quarter
May 9
New
May 18
First Quarter

Hourly Weather History & Observations

Time (EDT) Temp. Dew Point Humidity Pressure Visibility Wind Dir Wind Speed Gust Speed Precip Events Conditions
12:53 AM 63.0 °F 48.9 °F 60% 30.08 in 10.0 mi South 4.6 mph - N/A   Overcast
1:53 AM 63.0 °F 50.0 °F 63% 30.08 in 10.0 mi SSW 4.6 mph - N/A   Overcast
2:53 AM 64.0 °F 50.0 °F 60% 30.06 in 10.0 mi South 3.5 mph - N/A   Overcast
3:53 AM 62.1 °F 50.0 °F 65% 30.03 in 10.0 mi Calm Calm - N/A   Mostly Cloudy
4:53 AM 59.0 °F 50.0 °F 72% 30.01 in 10.0 mi SSW 3.5 mph - N/A   Clear
5:53 AM 59.0 °F 50.0 °F 72% 30.03 in 10.0 mi South 3.5 mph - N/A   Mostly Cloudy
6:53 AM 59.0 °F 51.1 °F 75% 30.02 in 10.0 mi SSE 4.6 mph - N/A   Mostly Cloudy
7:53 AM 61.0 °F 52.0 °F 72% 30.03 in 10.0 mi South 5.8 mph - N/A   Mostly Cloudy
8:53 AM 64.0 °F 54.0 °F 70% 30.02 in 10.0 mi SSW 12.7 mph 18.4 mph N/A   Mostly Cloudy
9:53 AM 66.0 °F 55.0 °F 68% 30.03 in 10.0 mi South 9.2 mph 17.3 mph N/A   Mostly Cloudy
10:53 AM 68.0 °F 55.9 °F 65% 30.01 in 10.0 mi South 15.0 mph 20.7 mph N/A   Overcast
11:53 AM 70.0 °F 57.0 °F 63% 30.03 in 10.0 mi South 15.0 mph 23.0 mph N/A   Overcast
12:53 PM 70.0 °F 55.9 °F 61% 30.05 in 10.0 mi SSW 15.0 mph 27.6 mph N/A   Overcast
1:53 PM 66.0 °F 59.0 °F 78% 30.06 in 7.0 mi SW 10.4 mph - 0.00 in Rain Light Rain
2:41 PM 64.4 °F 60.8 °F 88% 30.08 in 6.0 mi SW 9.2 mph - 0.05 in Rain Light Rain
2:53 PM 64.9 °F 61.0 °F 87% 30.05 in 7.0 mi South 8.1 mph - 0.06 in   Mostly Cloudy
2:57 PM 64.4 °F 60.8 °F 88% 30.06 in 10.0 mi South 5.8 mph - N/A   Mostly Cloudy
3:37 PM 64.4 °F 60.8 °F 88% 30.06 in 10.0 mi SSW 9.2 mph - 0.00 in Rain Light Rain
3:53 PM 64.9 °F 61.0 °F 87% 30.05 in 10.0 mi SSW 6.9 mph - 0.00 in   Overcast
4:53 PM 64.9 °F 61.0 °F 87% 30.05 in 10.0 mi WSW 8.1 mph - 0.00 in   Overcast
5:53 PM 60.1 °F 54.0 °F 80% 30.07 in 10.0 mi WNW 15.0 mph - N/A   Mostly Cloudy
6:53 PM 57.9 °F 51.1 °F 78% 30.11 in 10.0 mi WNW 13.8 mph 19.6 mph N/A   Overcast
7:53 PM 54.0 °F 46.9 °F 77% 30.15 in 10.0 mi NW 13.8 mph - N/A   Mostly Cloudy
8:07 PM 53.6 °F 46.4 °F 77% 30.16 in 10.0 mi NW 12.7 mph - N/A   Mostly Cloudy
8:27 PM 53.6 °F 46.4 °F 77% 30.17 in 10.0 mi NNW 11.5 mph - N/A   Overcast
8:53 PM 53.1 °F 45.0 °F 74% 30.19 in 10.0 mi North 10.4 mph - N/A   Mostly Cloudy
9:53 PM 51.1 °F 42.1 °F 71% 30.21 in 10.0 mi North 12.7 mph - N/A   Mostly Cloudy
10:53 PM 50.0 °F 41.0 °F 71% 30.23 in 10.0 mi NNW 10.4 mph - N/A   Overcast
11:53 PM 50.0 °F 39.0 °F 66% 30.24 in 10.0 mi NNW 12.7 mph - N/A   Mostly Cloudy